Weather History for Zephyrhills, FL

Change the Weather History Date:

Friday, February 22, 2013

  Actual Average (KPCM) Record (KPCM)
Temperature  
Mean Temperature 70 °F -  
Max Temperature 86 °F 77 °F 88 °F (1953)
Min Temperature 53 °F 54 °F 29 °F (1977)
Cooling Degree Days 4    
Growing Degree Days 20 (Base 50)    
Moisture  
Dew Point 61 °F    
Average Humidity 78    
Maximum Humidity 100    
Minimum Humidity 35    
Precipitation  
Precipitation 0.00 in - - ()
Sea Level Pressure  
Sea Level Pressure 30.06 in    
Wind  
Wind Speed 3 mph (South)    
Max Wind Speed 16 mph    
Max Gust Speed 17 mph    
Visibility 9 miles    
Events      
Averages and records for this station are not official NWS values.
T = Trace of Precipitation, MM = Missing Value Source: NWS Daily Summary

Daily Weather History Graph

Daily Weather History Graph

Search for Another Location

Airport:

Trip Planner

Search our weather history database for the weather conditions in past years. The results will help you decide how hot, cold, wet, or windy it might be!

Date:

Astronomy

Feb. 22, 2013 Rise Set
Actual Time 7:00 AM EST 6:24 PM EST
Civil Twilight 6:36 AM EST 6:48 PM EST
Nautical Twilight 6:08 AM EST 7:15 PM EST
Astronomical Twilight 5:41 AM EST 7:42 PM EST
Moon 3:43 PM EST (2/22) 4:34 AM EST (2/22)
Length of Visible Light 12h 12m
Length of Day
11h 24m
Waxing Gibbous, 90% of the Moon is Illuminated
Feb 22
Waxing Gibbous
Feb 25
Full
Mar 4
Last Quarter
Mar 11
New
Mar 19
First Quarter

Hourly Weather History & Observations

Time (EST) Temp. Heat Index Dew Point Humidity Pressure Visibility Wind Dir Wind Speed Gust Speed Precip Events Conditions
12:15 AM 62.6 °F - 60.8 °F 94% 30.07 in 10.0 mi Calm Calm - N/A   Mostly Cloudy
12:35 AM 62.6 °F - 60.8 °F 94% 30.06 in 10.0 mi Calm Calm - N/A   Mostly Cloudy
12:55 AM 62.6 °F - 60.8 °F 94% 30.06 in 10.0 mi Calm Calm - N/A   Mostly Cloudy
1:15 AM 62.6 °F - 62.6 °F 100% 30.06 in 10.0 mi Calm Calm - N/A   Overcast
1:35 AM 62.6 °F - 62.6 °F 100% 30.05 in 10.0 mi Calm Calm - N/A   Mostly Cloudy
1:55 AM 62.6 °F - 62.6 °F 100% 30.05 in 10.0 mi Calm Calm - N/A   Mostly Cloudy
2:15 AM 62.6 °F - 62.6 °F 100% 30.05 in 10.0 mi Calm Calm - N/A   Mostly Cloudy
2:35 AM 62.6 °F - 62.6 °F 100% 30.05 in 10.0 mi Calm Calm - N/A   Scattered Clouds
2:55 AM 60.8 °F - 60.8 °F 100% 30.05 in 10.0 mi Calm Calm - N/A   Clear
3:15 AM 59.0 °F - 59.0 °F 100% 30.05 in 10.0 mi Calm Calm - N/A   Clear
3:35 AM 60.8 °F - 60.8 °F 100% 30.05 in 10.0 mi Calm Calm - N/A   Clear
3:55 AM 59.0 °F - 59.0 °F 100% 30.05 in 7.0 mi Calm Calm - N/A   Clear
4:15 AM 59.0 °F - 59.0 °F 100% 30.05 in 10.0 mi Calm Calm - N/A   Scattered Clouds
4:35 AM 59.0 °F - 59.0 °F 100% 30.06 in 7.0 mi Calm Calm - N/A   Clear
4:55 AM 59.0 °F - 59.0 °F 100% 30.06 in 5.0 mi Calm Calm - N/A   Clear
5:15 AM 57.2 °F - 57.2 °F 100% 30.06 in 2.0 mi Calm Calm - N/A   Clear
5:35 AM 55.4 °F - 55.4 °F 100% 30.07 in 2.5 mi Calm Calm - N/A   Clear
5:55 AM 55.4 °F - 55.4 °F 100% 30.07 in 7.0 mi Calm Calm - N/A   Clear
6:15 AM 55.4 °F - 55.4 °F 100% 30.07 in 7.0 mi Calm Calm - N/A   Clear
6:35 AM 55.4 °F - 55.4 °F 100% 30.08 in 1.5 mi Calm Calm - N/A   Mist
6:55 AM 53.6 °F - 53.6 °F 100% 30.08 in 10.0 mi Calm Calm - N/A   Clear
7:15 AM 55.4 °F - 55.4 °F 100% 30.09 in 4.0 mi Calm Calm - N/A   Clear
7:35 AM 57.2 °F - 57.2 °F 100% 30.10 in 3.0 mi Calm Calm - N/A   Clear
7:55 AM 59.0 °F - 59.0 °F 100% 30.10 in 4.0 mi Calm Calm - N/A   Clear
8:15 AM 60.8 °F - 60.8 °F 100% 30.10 in 7.0 mi SE 5.8 mph - N/A   Clear
8:35 AM 62.6 °F - 62.6 °F 100% 30.10 in 10.0 mi SE 5.8 mph - N/A   Clear
8:55 AM 68.0 °F - 68.0 °F 100% 30.10 in 10.0 mi SSE 9.2 mph - N/A   Clear
9:15 AM 71.6 °F - 68.0 °F 88% 30.10 in 10.0 mi SSE 10.4 mph - N/A   Clear
9:35 AM 71.6 °F - 69.8 °F 94% 30.11 in 10.0 mi SSE 11.5 mph - N/A   Clear
9:55 AM 75.2 °F - 68.0 °F 78% 30.10 in 10.0 mi SSE 16.1 mph - N/A   Scattered Clouds
10:15 AM 77.0 °F - 66.2 °F 69% 30.11 in 10.0 mi SSE 13.8 mph - N/A   Scattered Clouds
10:35 AM 77.0 °F - 64.4 °F 65% 30.10 in 10.0 mi South 12.7 mph 16.1 mph N/A   Mostly Cloudy
10:55 AM 77.0 °F - 64.4 °F 65% 30.10 in 10.0 mi SSE 9.2 mph - N/A   Mostly Cloudy
11:15 AM 78.8 °F - 64.4 °F 61% 30.09 in 10.0 mi South 11.5 mph - N/A   Mostly Cloudy
11:35 AM 78.8 °F - 62.6 °F 57% 30.09 in 10.0 mi SSW 10.4 mph - N/A   Mostly Cloudy
11:55 AM 80.6 °F 81.8 °F 62.6 °F 54% 30.09 in 10.0 mi SSE 10.4 mph 17.3 mph N/A   Mostly Cloudy
12:15 PM 82.4 °F 82.9 °F 60.8 °F 48% 30.08 in 10.0 mi South 5.8 mph - N/A   Scattered Clouds
12:35 PM 82.4 °F 82.5 °F 59.0 °F 45% 30.07 in 10.0 mi SSE 10.4 mph - N/A   Scattered Clouds
12:55 PM 84.2 °F 83.8 °F 59.0 °F 42% 30.07 in 10.0 mi South 9.2 mph - N/A   Scattered Clouds
1:15 PM 84.2 °F 83.8 °F 59.0 °F 42% 30.06 in 10.0 mi South 8.1 mph - N/A   Scattered Clouds
1:35 PM 82.4 °F 82.0 °F 57.2 °F 42% 30.05 in 10.0 mi SE 6.9 mph - N/A   Scattered Clouds
2:15 PM 86.0 °F 84.5 °F 55.4 °F 35% 30.03 in 10.0 mi SSE 4.6 mph - N/A   Scattered Clouds
2:35 PM 84.2 °F 83.0 °F 55.4 °F 37% 30.03 in 10.0 mi South 9.2 mph - N/A   Scattered Clouds
2:55 PM 86.0 °F 84.5 °F 55.4 °F 35% 30.02 in 10.0 mi SSW 3.5 mph - N/A   Clear
3:15 PM 86.0 °F 84.5 °F 55.4 °F 35% 30.02 in 10.0 mi SSW 5.8 mph - N/A   Mostly Cloudy
3:35 PM 82.4 °F 81.7 °F 55.4 °F 39% 30.02 in 10.0 mi South 6.9 mph - N/A   Scattered Clouds
3:55 PM 86.0 °F 84.5 °F 55.4 °F 35% 30.01 in 10.0 mi South 4.6 mph - N/A   Clear
4:15 PM 82.4 °F 82.0 °F 57.2 °F 42% 30.01 in 10.0 mi SSW 6.9 mph - N/A   Clear
4:35 PM 82.4 °F 82.0 °F 57.2 °F 42% 30.01 in 10.0 mi South 4.6 mph - N/A   Scattered Clouds
4:55 PM 82.4 °F 81.7 °F 55.4 °F 39% 30.01 in 10.0 mi SSE 5.8 mph - N/A   Clear
5:15 PM 82.4 °F 82.0 °F 57.2 °F 42% 30.01 in 10.0 mi South 4.6 mph - N/A   Clear
5:35 PM 80.6 °F 81.5 °F 60.8 °F 51% 30.01 in 10.0 mi SW 8.1 mph - N/A   Scattered Clouds
5:55 PM 80.6 °F 81.8 °F 62.6 °F 54% 30.02 in 10.0 mi WSW 10.4 mph - N/A   Scattered Clouds
6:15 PM 78.8 °F - 62.6 °F 57% 30.02 in 10.0 mi WSW 10.4 mph - N/A   Clear
6:35 PM 77.0 °F - 64.4 °F 65% 30.03 in 10.0 mi SW 9.2 mph - N/A   Clear
6:55 PM 73.4 °F - 64.4 °F 73% 30.04 in 10.0 mi WSW 5.8 mph - N/A   Clear
7:15 PM 73.4 °F - 64.4 °F 73% 30.04 in 10.0 mi SSW 3.5 mph - N/A   Clear
7:35 PM 71.6 °F - 64.4 °F 78% 30.05 in 10.0 mi SW 6.9 mph - N/A   Clear
7:55 PM 71.6 °F - 64.4 °F 78% 30.05 in 10.0 mi SW 5.8 mph - N/A   Clear
8:15 PM 71.6 °F - 64.4 °F 78% 30.05 in 10.0 mi SSW 3.5 mph - N/A   Clear
8:35 PM 69.8 °F - 64.4 °F 83% 30.05 in 10.0 mi Calm Calm - N/A   Clear
8:55 PM 69.8 °F - 64.4 °F 83% 30.06 in 10.0 mi Calm Calm - N/A   Clear
9:15 PM 69.8 °F - 64.4 °F 83% 30.06 in 10.0 mi Calm Calm - N/A   Clear
9:35 PM 68.0 °F - 64.4 °F 88% 30.07 in 10.0 mi Calm Calm - N/A   Clear
9:55 PM 62.6 °F - 62.6 °F 100% 30.07 in 10.0 mi Calm Calm - N/A   Clear
10:15 PM 64.4 °F - 64.4 °F 100% 30.07 in 10.0 mi Calm Calm - N/A   Clear
10:35 PM 64.4 °F - 64.4 °F 100% 30.07 in 10.0 mi Calm Calm - N/A   Clear
10:55 PM 62.6 °F - 62.6 °F 100% 30.06 in 10.0 mi South 3.5 mph - N/A   Clear
11:15 PM 62.6 °F - 62.6 °F 100% 30.06 in 10.0 mi Calm Calm - N/A   Clear
11:35 PM 62.6 °F - 62.6 °F 100% 30.05 in 10.0 mi Calm Calm - N/A   Clear
11:55 PM 62.6 °F - 62.6 °F 100% 30.05 in 10.0 mi Calm Calm - N/A   Scattered Clouds